Location: Rounton
(54.4000°N, 1.3500°W)
Time: 00:44:04
(UTC+00:00)

deb Explorer IX - All Passes

Search period start: 30 November 2021 00:00
Search period end: 10 December 2021 00:00
Orbit: 546 x 1086 km, 38.8° (Epoch: 29 November)

Date Brightness Start Highest point End Pass type
(mag) Time Alt. Az. Time Alt. Az. Time Alt. Az.
06 Dec - 11:07:10 10° S 11:07:57 10° S 11:08:42 10° SSE daylight
07 Dec - 10:41:49 10° SSW 10:43:02 11° S 10:44:13 10° SSE daylight
08 Dec - 10:16:31 10° SSW 10:18:06 11° S 10:19:37 10° SSE daylight
09 Dec - 09:51:15 10° SSW 09:53:09 12° S 09:54:59 10° SSE daylight
